Regional Weather Roundup
Issued by NWS

Home | Current Version | Previous Version | Text Only | Print | Product List | Glossary On
Versions: 1 2 3 4 5 6 7 8 9 10 11 12 13 14 15 16 17 18 19 20 21 22 23 24 25 26 27 28 29 30 31 32 33 34 35 36 37 38 39 40 41 42 43 44 45 46 47 48 49 50
742
ASUS44 KLIX 241510
RWRLA
LOUISIANA WEATHER ROUNDUP
NATIONAL WEATHER SERVICE NEW ORLEANS LA
900 AM CST MON NOV 24 2014

NOTE: "FAIR" INDICATES FEW OR NO CLOUDS BELOW 12,000 FEET WITH NO
      SIGNIFICANT WEATHER AND/OR OBSTRUCTIONS TO VISIBILITY.
      SKY/WX - SKY CONDITION AND SIGNIFICANT WEATHER.
      TMP - AIR TEMPERATURE.    DP   - DEWPOINT TEMPERATURE.
      RH  - RELATIVE HUMIDITY.  PRES - PRESSURE.
      HX  - HEAT INDEX.         WCI  - WIND CHILL INDEX.

*  THESE STATIONS ARE NOT NWS OR FAA STATIONS AND ARE NOT UNDER
   NWS QUALITY CONTROL.

LAZ040-048-061>063-065-066-069-241600-
SOUTHEAST LOUISIANA

CITY           SKY/WX    TMP DP  RH WIND       PRES   REMARKS
N.O. AUDUBON     N/A     70  65  84 MISG        N/A
N.O. INTL ARPT MOSUNNY   68  62  81 NW13      29.87R
N.O. LAKEFRONT MOSUNNY   62  60  93 W10       29.88R
N.O. DOWNTOWN* PTSUNNY   68  61  77 W8        29.88R
SLIDELL        MOSUNNY   69  62  78 VRB6      29.86R
BATON ROUGE    SUNNY     58  47  66 NW7G17    29.93R
BOOTHVILLE     MOSUNNY   67  67 100 W9        29.88R FOG
BELLE CHASSE   PTSUNNY   70  63  78 NW6       29.86R HAZE
BOGALUSA*        N/A     67  54  62 MISG      29.90R
NEW ROADS*     FAIR      55  46  69 NW14      29.95R
GONZALES*      FAIR      63  54  74 NW10G18   29.91R
HAMMOND*       MOSUNNY   64  55  72 NW9G17    29.91R
HOUMA*         MOSUNNY   70  63  78 NW12      29.88R
PORT FOURCHON* MOSUNNY   66  66 100 NW10      29.91R FOG

$$

LAZ041-044-053-054-241600-
SOUTHWEST LOUISIANA

CITY           SKY/WX    TMP DP  RH WIND       PRES   REMARKS
LAKE CHARLES   SUNNY     55  44  66 N17       29.95R
LAFAYETTE      SUNNY     57  47  69 N10       29.95R
PATTERSON      SUNNY     63  55  77 NW12G17   29.93R
SALT POINT       N/A     65  54  67 VRB6      29.91R
NEW IBERIA     SUNNY     59  50  72 N15       29.95R
CHENAULT AIRPK SUNNY     54  45  71 N15       29.96R

$$

LAZ027-028-241600-
CENTRAL LOUISIANA

CITY           SKY/WX    TMP DP  RH WIND       PRES   REMARKS
FORT POLK      SUNNY     52  42  67 N15G21    29.98R
ALEXANDRIA INT SUNNY     54  43  66 N14       29.96R
ALEXANDRIA     SUNNY     55  43  63 N6        29.96R

$$

LAZ001-002-241600-
NORTHWEST LOUISIANA

CITY           SKY/WX    TMP DP  RH WIND       PRES   REMARKS
SHREVEPORT     MOSUNNY   51  38  60 NW14      29.99R
BARKSDALE AFB  SUNNY     52  37  55 NW13      30.00R
DTN SHREVEPORT SUNNY     51  35  54 NW10      29.99R

$$

LAZ014-016-241600-
NORTHEAST LOUISIANA

CITY           SKY/WX    TMP DP  RH WIND       PRES   REMARKS
MONROE         SUNNY     53  39  59 N15       29.95R
TALLULAH       SUNNY     55  42  61 NW10      29.94R

$$




USA.gov is the U.S. government's official web portal to all federal, state and local government web resources and services.